GW6839 Weather Reports


time (UTC)temp
F
wind
direction
speed
knots
gust
knots
rain 1hr
in
rain 24hr
in
rain mn
in
humidity
%
barometer
mb
20260506092015 41 22 0.9 2.6 0.00 0.00 0.00 70 1008.4
20260506091513 42 273 1.7 5.2 0.00 0.00 0.00 68 1008.5
20260506091010 42 51 2.6 6.1 0.00 0.00 0.00 68 1008.6
20260506090508 42 31 1.7 2.6 0.00 0.00 0.00 68 1008.6
20260506090004 42 32 1.7 5.2 0.00 0.00 0.00 67 1008.6
20260506085501 42 354 0.9 3.5 0.00 0.00 0.00 67 1008.6
20260506084957 42 36 1.7 2.6 0.00 0.00 0.00 68 1008.6
20260506084454 42 47 0.0 1.7 0.00 0.00 0.00 68 1008.4
20260506083950 42 23 1.7 1.7 0.00 0.00 0.00 69 1008.8
20260506083448 42 31 0.9 0.9 0.00 0.00 0.00 70 1008.6
20260506082945 42 50 0.0 0.9 0.00 0.00 0.00 70 1008.6
20260506082442 42 19 0.9 1.7 0.00 0.00 0.00 69 1008.6
20260506081937 43 68 0.9 0.9 0.00 0.00 0.00 69 1008.6
20260506081436 43 40 0.9 1.7 0.00 0.00 0.00 69 1008.5
20260506080933 43 29 0.0 1.7 0.00 0.00 0.00 69 1008.6
20260506080430 43 352 0.9 0.9 0.00 0.00 0.00 70 1008.5
20260506073414 43 22 0.9 0.9 0.00 0.00 0.00 72 1008.4
20260506072911 43 42 0.0 2.6 0.00 0.00 0.00 71 1008.4
20260506072408 43 29 0.9 1.7 0.00 0.00 0.00 71 1008.4
20260506071906 44 26 1.7 2.6 0.00 0.00 0.00 71 1008.2
20260506071404 44 53 0.9 1.7 0.00 0.00 0.00 71 1008.5
20260506070900 44 88 0.9 1.7 0.00 0.00 0.00 72 1008.1
20260506070357 44 36 0.0 1.7 0.00 0.00 0.00 72 1008.1
20260506062334 46 36 0.9 1.7 0.00 0.00 0.00 71 1007.9
20260506061830 46 26 0.9 2.6 0.00 0.00 0.00 70 1008.1
20260506061327 46 5 0.9 3.5 0.00 0.00 0.00 69 1007.9
20260506060825 46 25 0.9 5.2 0.00 0.00 0.00 70 1007.8
20260506060323 47 67 0.9 1.7 0.00 0.00 0.00 70 1007.5
20260506051255 49 274 4.3 7.0 0.00 0.00 0.00 56 1007.8
20260506050753 49 255 4.3 7.0 0.00 0.00 0.00 56 1007.6
20260506050250 49 283 2.6 2.6 0.00 0.00 0.00 57 1007.5
20260506044740 49 64 0.9 3.5 0.00 0.00 0.00 55 1007.6
20260506044238 49 25 1.7 6.1 0.00 0.00 0.00 54 1007.6
20260506043735 49 262 6.1 7.8 0.00 0.00 0.00 54 1007.6
20260506043232 49 282 5.2 7.0 0.00 0.00 0.00 54 1007.7
20260506042731 50 267 3.5 7.0 0.00 0.00 0.00 54 1007.7
20260506042229 50 277 7.0 7.8 0.00 0.00 0.00 53 1007.6
20260506041727 50 277 3.5 6.1 0.00 0.00 0.00 54 1007.6
20260506041224 50 267 6.1 7.0 0.00 0.00 0.00 51 1007.6
20260506040721 50 246 3.5 7.0 0.00 0.00 0.00 52 1008.0
20260506040218 50 263 3.5 6.1 0.00 0.00 0.00 51 1007.8
20260506035715 50 240 2.6 5.2 0.00 0.00 0.00 51 1007.7
20260506035212 50 321 1.7 3.5 0.00 0.00 0.00 52 1007.7
20260506034709 50 255 2.6 3.5 0.00 0.00 0.00 51 1007.7
20260506034206 50 257 3.5 6.1 0.00 0.00 0.00 50 1007.5
20260506033703 50 250 2.6 5.2 0.00 0.00 0.00 51 1007.6
20260506033200 50 282 2.6 3.5 0.00 0.00 0.00 50 1007.6
20260506032657 50 292 3.5 5.2 0.00 0.00 0.00 49 1007.7
20260506032154 50 262 2.6 3.5 0.00 0.00 0.00 49 1007.8
20260506031650 51 266 2.6 3.5 0.00 0.00 0.00 48 1007.6
20260506031147 51 277 1.7 3.5 0.00 0.00 0.00 48 1007.8
20260506030646 51 138 2.6 5.2 0.00 0.00 0.00 49 1007.9
20260506030143 51 261 4.3 5.2 0.00 0.00 0.00 47 1007.9
20260506025640 51 261 2.6 3.5 0.00 0.00 0.00 48 1007.9
20260506025136 51 257 3.5 5.2 0.00 0.00 0.00 47 1007.8
20260506024634 51 278 4.3 5.2 0.00 0.00 0.00 46 1007.9
20260506024129 51 324 3.5 5.2 0.00 0.00 0.00 47 1008.0
20260506023626 51 239 4.3 6.1 0.00 0.00 0.00 47 1008.2
20260506023123 52 274 3.5 5.2 0.00 0.00 0.00 47 1007.9
20260506022621 51 248 3.5 5.2 0.00 0.00 0.00 47 1007.8
20260506022118 51 299 1.7 5.2 0.00 0.00 0.00 47 1007.8
20260506021616 52 253 2.6 2.6 0.00 0.00 0.00 47 1007.7
20260506021113 52 318 1.7 2.6 0.00 0.00 0.00 47 1007.5
20260506020610 52 351 1.7 2.6 0.00 0.00 0.00 47 1007.6
20260506020107 52 287 3.5 3.5 0.00 0.00 0.00 46 1007.5
20260506015605 52 273 3.5 6.1 0.00 0.00 0.00 46 1007.5
20260506015101 52 272 5.2 7.0 0.00 0.00 0.00 45 1007.6
20260506014559 53 272 4.3 5.2 0.00 0.00 0.00 46 1007.3
20260506014054 53 279 2.6 6.1 0.00 0.00 0.00 46 1007.3
20260506013553 53 240 2.6 5.2 0.00 0.00 0.00 46 1007.5
20260506013049 53 357 1.7 2.6 0.00 0.00 0.00 48 1007.3
20260506012545 53 5 1.7 3.5 0.00 0.00 0.00 46 1007.2
20260506012042 53 294 2.6 7.8 0.00 0.00 0.00 45 1007.2
20260506011541 53 268 3.5 7.8 0.00 0.00 0.00 45 1007.3
20260506011036 53 247 4.3 6.1 0.00 0.00 0.00 46 1007.5
20260506010536 53 263 3.5 5.2 0.00 0.00 0.00 46 1007.3
20260506010032 53 241 3.5 6.1 0.00 0.00 0.00 47 1007.2
20260506005529 53 281 3.5 3.5 0.00 0.00 0.00 48 1007.4
20260506005025 53 287 2.6 3.5 0.00 0.00 0.00 49 1007.1
20260506004523 53 248 1.7 5.2 0.00 0.00 0.00 51 1007.1
20260506004019 53 276 5.2 6.1 0.00 0.00 0.00 51 1007.0
20260506003516 53 283 2.6 3.5 0.00 0.00 0.00 52 1007.0
20260506003012 53 352 1.7 2.6 0.00 0.00 0.00 54 1007.1
20260506002508 53 280 1.7 2.6 0.00 0.00 0.00 54 1007.1
20260506002003 53 251 2.6 2.6 0.00 0.00 0.00 53 1006.9
20260506001500 54 283 1.7 2.6 0.00 0.00 0.00 54 1006.8
20260506000958 54 270 3.5 3.5 0.00 0.00 0.00 52 1006.7
20260506000455 54 344 0.9 1.7 0.00 0.00 0.00 55 1006.7
20260505235952 54 299 1.7 3.5 0.00 0.00 0.00 53 1006.7
20260505235450 54 246 3.5 3.5 0.00 0.00 0.00 53 1006.6
20260505234947 54 252 1.7 2.6 0.00 0.00 0.00 53 1006.7
20260505234444 54 270 2.6 3.5 0.00 0.00 0.00 54 1006.5
20260505233940 54 289 2.6 2.6 0.00 0.00 0.00 54 1006.3
20260505233438 54 348 0.9 2.6 0.00 0.00 0.00 56 1006.4
20260505232936 55 178 1.7 2.6 0.00 0.00 0.00 55 1006.4
20260505232434 55 317 1.7 2.6 0.00 0.00 0.00 56 1006.4
20260505231930 55 244 3.5 5.2 0.00 0.00 0.00 54 1006.5
20260505231428 55 291 1.7 3.5 0.00 0.00 0.00 54 1006.6
20260505230926 55 193 1.7 2.6 0.00 0.00 0.00 54 1006.5
20260505230423 55 244 4.3 5.2 0.00 0.00 0.00 54 1006.5
20260505225919 55 283 3.5 5.2 0.00 0.00 0.00 54 1006.6
20260505225417 55 265 7.0 7.8 0.00 0.00 0.00 54 1006.8
20260505224912 55 286 3.5 6.1 0.00 0.00 0.00 53 1006.4
20260505224409 55 242 7.0 7.8 0.00 0.00 0.00 53 1006.5
20260505223906 55 252 3.5 5.2 0.00 0.00 0.00 54 1006.6
20260505223403 55 336 3.5 7.8 0.00 0.00 0.00 55 1006.6
20260505222859 55 275 4.3 6.1 0.00 0.00 0.00 54 1006.8
20260505222356 55 268 6.1 8.7 0.00 0.00 0.00 53 1006.7
20260505221852 55 218 5.2 9.6 0.00 0.00 0.00 54 1006.7
20260505221349 55 257 3.5 8.7 0.00 0.00 0.00 54 1006.7
20260505220846 55 253 6.1 8.7 0.00 0.00 0.00 55 1006.7
20260505220343 56 263 6.1 8.7 0.00 0.00 0.00 55 1006.6
20260505215841 56 232 4.3 6.1 0.00 0.00 0.00 58 1006.7
20260505215339 56 288 3.5 7.0 0.00 0.00 0.00 58 1006.7
20260505214837 56 253 3.5 6.1 0.00 0.00 0.00 57 1006.7
20260505214334 55 263 3.5 5.2 0.00 0.00 0.00 58 1006.7
20260505213831 55 264 5.2 7.0 0.00 0.00 0.00 57 1006.6
20260505213329 55 260 4.3 5.2 0.00 0.00 0.00 58 1006.8
20260505212824 55 243 3.5 7.8 0.00 0.00 0.00 58 1006.8
20260505212322 55 285 5.2 8.7 0.00 0.00 0.00 57 1006.7
20260505211818 55 220 2.6 9.6 0.00 0.00 0.00 58 1006.8
20260505211316 55 253 3.5 7.8 0.00 0.00 0.00 57 1006.6
20260505210812 55 256 6.1 8.7 0.00 0.00 0.00 57 1006.4
20260505210309 55 241 2.6 5.2 0.00 0.00 0.00 59 1006.7
20260505205806 55 252 5.2 7.0 0.00 0.00 0.00 56 1006.7
20260505205305 55 266 7.8 12.2 0.00 0.00 0.00 57 1006.4
20260505204800 55 283 3.5 6.1 0.00 0.00 0.00 58 1006.5
20260505204258 55 249 4.3 5.2 0.00 0.00 0.00 57 1006.8
20260505203755 55 344 1.7 7.0 0.00 0.00 0.00 58 1006.7
20260505203252 55 254 2.6 3.5 0.00 0.00 0.00 58 1006.7
20260505202749 55 316 2.6 6.1 0.00 0.00 0.00 57 1006.5
20260505202244 55 250 5.2 8.7 0.00 0.00 0.00 57 1006.6
20260505201741 55 218 3.5 5.2 0.00 0.00 0.00 57 1006.7
20260505201239 55 260 2.6 5.2 0.00 0.00 0.00 58 1006.8
20260505200737 55 335 7.8 11.3 0.00 0.00 0.00 58 1007.0
20260505200234 55 281 7.0 9.6 0.00 0.00 0.00 57 1006.7
20260505195729 55 254 4.3 7.0 0.00 0.00 0.00 58 1007.0
20260505195227 55 244 5.2 6.1 0.00 0.00 0.00 57 1007.0
20260505194724 55 205 6.1 7.8 0.00 0.00 0.00 57 1006.9
20260505194220 55 249 4.3 6.1 0.00 0.00 0.00 60 1006.9
20260505193716 55 10 5.2 8.7 0.00 0.00 0.00 57 1006.8
20260505193214 55 255 6.1 11.3 0.00 0.00 0.00 57 1006.9
20260505192712 55 251 8.7 9.6 0.00 0.00 0.00 57 1006.9
20260505192209 55 263 3.5 7.0 0.00 0.00 0.00 58 1006.8
20260505191708 55 262 5.2 7.0 0.00 0.00 0.00 59 1007.0
20260505191206 55 210 6.1 9.6 0.00 0.00 0.00 59 1006.9
20260505190702 55 283 2.6 5.2 0.00 0.00 0.00 65 1007.0
20260505190201 54 266 3.5 6.1 0.00 0.00 0.00 65 1007.0
20260505185658 54 288 2.6 6.1 0.00 0.00 0.00 67 1007.0
20260505185155 54 257 5.2 7.0 0.00 0.00 0.00 66 1006.9
20260505184651 55 264 2.6 2.6 0.00 0.00 0.00 66 1006.8
20260505184148 55 255 3.5 7.0 0.00 0.00 0.00 66 1006.8
20260505183645 55 346 2.6 3.5 0.00 0.00 0.00 66 1006.7
20260505183143 55 252 3.5 3.5 0.00 0.00 0.00 67 1006.6
20260505182638 55 248 3.5 6.1 0.00 0.00 0.00 68 1006.6
20260505182136 55 23 0.9 2.6 0.00 0.00 0.00 66 1006.7
20260505181632 55 232 1.7 6.1 0.00 0.00 0.00 66 1006.6
20260505181130 54 300 1.7 7.0 0.00 0.00 0.00 67 1006.5
20260505180625 54 158 1.7 2.6 0.00 0.00 0.00 67 1006.7
20260505180123 53 288 2.6 5.2 0.00 0.00 0.00 69 1006.7
20260505175619 53 255 2.6 3.5 0.00 0.00 0.00 69 1006.4
20260505175116 53 297 3.5 6.1 0.00 0.00 0.00 68 1006.4
20260505174612 53 19 0.9 5.2 0.00 0.00 0.00 69 1006.5
20260505174108 53 56 0.9 1.7 0.00 0.00 0.00 69 1006.5
20260505173605 52 34 0.0 0.9 0.00 0.00 0.00 69 1006.2
20260505173102 53 53 0.0 1.7 0.00 0.00 0.00 69 1006.4
20260505172600 52 69 0.9 0.9 0.00 0.00 0.00 69 1006.3
20260505172057 51 91 1.7 1.7 0.00 0.00 0.00 72 1006.4
20260505171556 51 63 0.9 1.7 0.00 0.00 0.00 71 1006.3
20260505171054 51 59 0.9 0.9 0.00 0.00 0.00 72 1006.4
20260505170551 50 67 0.9 0.9 0.00 0.00 0.00 71 1006.7
20260505170047 51 273 2.6 3.5 0.00 0.00 0.00 70 1006.8
20260505165542 50 36 0.0 0.0 0.00 0.00 0.00 68 1006.4
20260505165038 50 22 0.9 0.9 0.00 0.00 0.00 69 1006.4
20260505164535 49 67 0.0 0.0 0.00 0.00 0.00 72 1006.7
20260505164032 49 67 0.0 0.9 0.00 0.00 0.00 73 1006.5
20260505163531 49 72 0.9 1.7 0.00 0.00 0.00 73 1006.5
20260505163027 49 73 0.9 1.7 0.00 0.00 0.00 73 1006.4
20260505162521 49 50 0.0 0.9 0.00 0.00 0.00 71 1006.2
20260505162018 49 51 0.0 0.9 0.00 0.00 0.00 70 1006.6
20260505161514 49 28 0.9 0.9 0.00 0.00 0.00 69 1006.6
20260505161011 49 29 0.0 0.0 0.00 0.00 0.00 67 1006.5
20260505160510 50 56 0.9 2.6 0.00 0.00 0.00 65 1006.2
20260505152946 51 40 0.9 1.7 0.00 0.00 0.00 64 1006.4
20260505152443 51 35 0.9 1.7 0.00 0.00 0.00 60 1006.5
20260505151943 51 40 0.0 1.7 0.00 0.00 0.00 60 1006.5
20260505151439 51 18 0.9 0.9 0.00 0.00 0.00 59 1006.1
20260505150937 50 26 0.9 1.7 0.00 0.00 0.00 59 1005.9
20260505150434 50 64 1.7 2.6 0.00 0.00 0.00 57 1005.8
20260505140404 52 23 2.6 3.5 0.00 0.00 0.00 60 1005.5
20260505124817 51 20 3.5 6.1 0.00 0.00 0.00 58 1004.1
20260505124314 51 10 2.6 5.2 0.00 0.00 0.00 63 1004.2
20260505123810 51 37 1.7 7.0 0.00 0.00 0.00 62 1004.1
20260505123307 51 116 2.6 3.5 0.00 0.00 0.00 61 1004.1
20260505122803 50 21 1.7 1.7 0.00 0.00 0.00 64 1004.1
20260505122301 50 32 1.7 2.6 0.00 0.00 0.00 64 1003.9
20260505121756 50 13 1.7 3.5 0.00 0.00 0.00 64 1004.0
20260505121253 50 22 3.5 7.0 0.00 0.00 0.00 64 1003.7
20260505120750 50 26 2.6 5.2 0.00 0.00 0.00 64 1003.9
20260505120246 49 25 6.1 7.8 0.00 0.00 0.00 65 1003.7
20260505115745 49 16 7.0 8.7 0.00 0.00 0.00 66 1003.4
20260505115243 50 24 1.7 3.5 0.00 0.00 0.00 68 1003.2
20260505114740 50 11 3.5 5.2 0.00 0.00 0.00 67 1003.5
20260505114236 50 8 3.5 3.5 0.00 0.00 0.00 68 1003.3
20260505113733 49 26 2.6 5.2 0.00 0.00 0.00 68 1003.1
20260505113229 49 43 2.6 6.1 0.00 0.00 0.00 68 1003.2
20260505112725 49 1 3.5 6.1 0.00 0.00 0.00 68 1003.0
20260505112223 49 30 1.7 5.2 0.00 0.00 0.00 69 1002.9
20260505111723 49 359 4.3 7.8 0.00 0.00 0.00 68 1002.5
20260505111219 49 35 2.6 5.2 0.00 0.00 0.00 71 1002.8
20260505110715 49 12 3.5 7.8 0.00 0.00 0.00 72 1002.4
20260505110213 49 356 2.6 6.1 0.00 0.00 0.00 74 1002.7
20260505102148 59 306 1.7 1.7 0.00 0.00 0.00 75 1000.8
20260505101647 59 277 1.7 2.6 0.00 0.00 0.00 75 1000.9
20260505101143 59 308 1.7 2.6 0.00 0.00 0.00 74 1000.9
20260505100639 59 232 5.2 6.1 0.00 0.00 0.00 74 1000.5
20260505100136 59 253 2.6 3.5 0.00 0.00 0.00 73 1000.7
20260505095632 60 233 4.3 5.2 0.00 0.00 0.00 73 1000.8
20260505095129 60 294 1.7 6.1 0.00 0.00 0.00 72 1000.5
20260505094626 60 265 4.3 6.1 0.00 0.00 0.00 72 1000.5
20260505094122 60 268 4.3 7.0 0.00 0.00 0.00 71 1000.6
20260505093618 60 268 5.2 6.1 0.00 0.00 0.00 71 1000.2
20260505093115 60 305 2.6 7.8 0.00 0.00 0.00 71 1000.6
20260505092612 60 262 3.5 3.5 0.00 0.00 0.00 70 1000.2
20260505092112 60 308 1.7 5.2 0.00 0.00 0.00 70 1000.0